Cloud_Cover
92 92 92 92 92 92 92 92 92 92 92 92 80 80 80 88 48 64 80 80 80 88 88 88 88 88 88 88 88 80 80 80 80 80 80 80 88 88 88 88 88 88 80 80 76 68 68 88 88 88 88 88 88 88 76 36 32 44 76 92 92 92 92 92 88 88 92 92 92
88 88 88 88 88 88 88 88 92 88 88 76 76 80 88 88 56 64 80 80 80 88 88 88 88 88 88 88 88 80 80 80 80 80 80 80 80 80 80 88 88 80 80 80 80 76 76 80 88 88 88 88 88 88 68 32 32 44 68 88 92 92 88 88 80 88 88 92 92
80 80 88 88 88 88 88 92 88 88 88 88 88 88 88 88 80 80 80 88 88 88 88 88 88 88 88 88 88 80 80 80 80 80 80 80 80 80 80 80 88 80 80 80 80 80 80 88 88 88 88 88 88 88 68 12 24 36 56 88 92 92 92 88 80 80 76 80 92
88 88 88 88 88 88 92 92 92 92 92 92 88 88 88 80 80 80 80 88 88 80 88 88 88 88 88 88 88 88 88 88 88 80 80 80 80 88 88 80 80 80 80 80 80 80 80 80 80 88 88 88 88 88 76 24 32 36 48 68 80 88 88 80 80 76 64 64 76
92 92 88 88 76 80 80 80 88 92 92 88 80 80 80 68 76 80 80 80 88 88 88 88 88 88 88 88 88 80 88 88 88 88 88 88 88 88 80 80 80 80 76 80 80 80 80 88 80 88 88 88 88 76 48 32 36 44 64 88 80 76 68 64 68 64 56 56 68
92 92 92 88 76 68 68 64 64 80 92 92 88 76 56 36 32 48 76 68 80 80 80 88 88 88 88 88 80 80 80 80 88 88 88 88 88 88 80 76 76 68 64 64 76 80 80 88 80 88 88 88 92 76 56 56 56 76 88 88 88 88 80 68 68 64 56 56 56
92 88 88 88 64 44 32 32 36 56 76 88 88 64 32 20 12 20 32 56 76 68 64 88 88 88 88 88 88 88 88 80 80 80 88 88 88 88 88 80 68 64 56 56 76 80 80 80 80 88 88 88 76 76 80 80 80 80 88 88 88 88 88 88 88 80 64 48 56
88 88 76 48 36 24 20 12 20 36 56 68 64 44 24 12 12 12 20 36 44 48 64 88 88 88 88 88 88 88 88 88 88 88 88 88 88 88 80 76 80 76 64 64 76 80 88 88 88 88 88 88 88 80 80 88 76 76 88 88 92 92 92 92 88 88 80 56 48
80 80 68 36 24 12 8 8 12 24 44 48 24 12 8 12 32 32 32 36 48 56 68 88 88 88 88 88 88 88 88 88 88 88 88 88 88 88 80 80 76 76 80 80 80 80 88 88 88 88 88 88 88 88 88 88 88 88 80 76 88 92 92 92 92 92 88 68 48
80 68 48 24 12 8 0 0 8 20 32 36 32 32 32 32 68 68 64 76 68 68 80 88 88 88 88 88 88 88 88 88 88 88 88 88 88 88 80 80 80 80 80 80 80 88 88 88 88 88 88 88 88 88 88 88 88 88 80 88 92 92 92 92 92 92 88 68 48
56 32 12 8 0 0 0 0 8 24 48 68 76 76 76 76 80 80 80 80 80 80 80 88 88 88 88 88 88 88 88 88 88 88 88 88 88 88 88 80 80 80 80 80 80 88 88 88 88 88 88 88 88 88 88 88 88 88 88 88 88 92 92 92 92 92 92 80 68
32 8 0 0 0 0 0 8 8 36 68 76 76 76 76 80 80 80 80 80 80 80 80 88 88 88 88 88 88 88 88 88 88 88 88 88 88 88 88 88 80 80 80 80 80 88 88 88 88 88 88 88 88 88 88 88 88 88 88 88 92 92 92 92 92 92 92 92 88
12 0 0 0 0 0 8 8 12 20 44 76 68 68 76 80 80 80 80 80 88 88 80 88 88 88 88 88 88 88 88 88 88 88 88 88 88 80 80 80 80 80 80 80 88 88 88 88 88 88 80 88 88 88 88 88 88 92 92 88 92 92 92 92 92 92 92 92 92
0 0 0 0 0 0 8 12 12 20 32 48 32 48 76 80 80 80 80 80 88 88 80 80 88 88 88 88 88 88 88 88 92 92 92 88 88 88 80 80 80 80 88 88 88 88 88 88 88 88 80 80 88 88 88 88 88 88 88 92 88 92 92 88 92 92 92 92 92
8 0 0 0 0 0 8 12 12 24 32 0 0 24 56 76 80 80 80 80 88 88 80 88 88 88 88 88 88 88 88 92 92 92 92 88 88 88 88 80 80 80 88 88 88 80 80 88 88 88 88 88 88 88 88 88 88 88 88 92 88 92 92 92 88 80 80 92 92
20 0 0 8 8 8 12 12 12 24 24 0 0 0 12 56 76 80 80 88 88 88 80 88 80 88 88 88 88 88 92 88 88 92 92 88 88 88 88 80 80 80 80 88 88 80 76 88 88 88 88 88 88 88 88 88 88 88 88 88 88 92 92 92 88 76 68 80 88
20 8 12 12 12 12 12 12 20 20 12 0 0 0 0 20 64 80 80 80 88 88 88 88 80 88 88 88 92 92 88 88 88 88 88 88 88 88 88 88 80 80 80 88 88 80 80 88 88 88 88 88 88 88 88 88 88 88 88 88 88 88 92 92 88 76 68 68 88
24 20 20 20 20 20 20 20 24 20 8 0 0 0 0 0 24 56 80 80 80 80 80 80 88 88 88 92 92 92 88 88 88 92 92 88 88 88 88 88 88 88 80 88 88 80 80 88 88 88 88 88 88 88 88 88 88 88 88 88 88 88 88 92 88 80 76 80 88
36 24 24 24 32 24 24 20 32 24 8 0 0 0 0 0 0 36 80 80 80 80 80 80 80 80 88 92 92 88 88 88 92 92 92 92 88 88 88 88 88 88 88 80 76 76 88 88 88 88 88 88 88 88 88 88 88 88 88 88 88 88 88 88 88 88 88 88 88
44 32 32 32 32 32 32 32 48 32 8 0 0 0 0 0 0 36 80 80 88 88 80 88 88 88 88 92 92 88 88 92 92 92 92 92 88 88 88 88 88 88 88 80 56 68 88 88 88 88 88 88 88 88 88 88 88 88 88 88 88 88 88 88 88 88 88 88 88
36 32 32 32 32 32 36 44 64 44 12 0 0 0 0 0 0 12 36 80 88 88 80 88 88 88 88 88 92 92 88 92 92 92 92 92 92 88 88 88 88 88 80 76 64 68 80 88 88 88 88 88 80 88 88 88 88 88 88 88 88 88 88 88 88 88 88 88 88
36 32 32 32 36 44 48 64 68 48 24 0 0 0 0 0 0 0 20 80 88 88 80 88 88 88 88 88 92 92 92 88 92 92 92 92 92 88 88 88 88 88 80 68 76 76 80 88 88 88 88 88 88 88 92 92 88 88 88 88 88 88 80 80 80 88 92 88 88
32 32 32 36 36 44 48 68 68 68 44 0 0 0 0 0 0 0 20 80 80 80 80 80 88 88 88 88 92 92 92 88 88 92 92 92 92 88 88 88 88 88 80 76 76 80 88 88 88 88 88 88 88 88 92 92 88 88 88 88 80 80 80 80 80 80 88 88 92
32 32 24 32 36 44 56 68 68 68 56 12 0 0 0 0 0 0 12 64 76 80 80 80 80 88 88 88 92 92 92 92 92 92 92 92 92 88 88 88 88 88 88 88 80 88 88 92 88 88 88 88 88 88 92 92 88 88 88 88 80 80 80 80 88 88 92 92 92
24 24 24 32 44 48 64 68 68 68 64 36 8 0 0 0 0 0 0 8 64 80 80 80 80 88 88 92 92 92 92 92 92 92 92 92 92 92 92 88 88 88 88 88 88 80 80 92 92 88 88 88 88 88 92 92 88 88 88 80 88 92 92 92 92 92 92 92 92
24 20 24 32 44 56 68 76 68 68 68 64 12 0 0 0 0 0 0 0 56 80 88 80 80 88 88 92 92 92 92 92 92 92 92 92 92 92 88 88 88 88 88 88 88 88 88 92 92 92 88 88 88 92 92 92 88 88 88 88 88 88 92 92 92 92 92 92 92
20 20 24 36 48 64 68 76 68 68 64 48 12 0 0 0 0 0 0 0 12 56 88 80 80 88 88 92 92 92 92 92 92 92 92 92 92 92 88 88 88 88 88 88 88 80 80 92 92 92 92 88 88 92 92 92 88 88 88 88 88 88 88 88 88 88 88 88 88
20 24 32 44 56 68 68 68 68 68 64 36 8 0 0 0 0 0 8 36 12 32 56 80 80 80 88 92 92 92 92 92 92 92 92 92 88 88 88 88 88 88 88 92 88 80 80 92 92 92 92 88 88 92 92 92 88 88 88 88 80 80 80 80 88 88 88 88 88
20 24 36 68 68 68 68 68 68 68 64 32 8 0 0 0 0 8 24 68 24 20 44 92 80 80 80 88 92 92 88 80 88 92 92 88 88 88 88 88 88 88 88 88 88 88 92 92 92 92 92 92 88 92 92 92 92 88 88 80 88 88 88 88 88 88 88 88 88
20 24 36 68 68 68 68 68 68 68 64 44 8 0 0 0 0 8 32 68 36 48 68 68 76 76 80 80 88 92 92 88 80 88 88 88 88 88 80 80 88 88 80 80 80 88 92 92 92 92 92 92 92 92 92 92 92 88 88 88 88 88 88 88 88 88 88 88 88
24 44 64 68 68 68 68 68 68 68 68 68 12 0 0 0 0 12 44 68 76 76 68 68 76 76 76 76 80 88 88 88 68 76 92 88 88 80 80 80 80 80 80 88 80 88 92 92 92 92 92 92 92 92 92 92 92 92 88 88 88 88 88 88 88 88 88 88 88
24 48 68 68 68 68 68 68 68 68 64 32 8 0 0 0 0 20 48 68 76 76 68 68 68 76 76 76 80 88 88 88 80 80 88 92 88 88 80 80 80 88 88 92 88 80 88 92 92 92 92 92 92 92 92 92 92 92 92 88 88 88 88 88 88 88 88 88 88
32 48 68 68 68 68 68 68 68 64 44 0 0 0 0 0 0 8 24 64 68 76 76 76 76 76 76 76 76 80 88 88 88 88 88 92 92 88 80 80 80 88 92 88 80 80 88 88 88 92 92 92 92 92 92 92 92 92 92 92 88 88 88 88 88 88 88 88 88
32 48 64 68 68 68 68 68 68 36 8 0 0 0 0 0 0 8 32 56 68 76 76 76 76 76 76 76 76 80 80 88 88 88 88 80 92 88 80 80 80 88 92 92 88 80 88 88 88 92 92 92 92 92 92 92 92 92 92 92 92 92 88 88 88 88 88 88 88
32 36 48 68 68 56 44 68 68 32 0 0 0 0 0 0 0 12 36 64 68 76 76 76 76 76 76 76 76 76 80 88 88 88 88 88 92 88 80 80 80 88 92 92 88 80 80 80 88 88 92 92 92 92 92 92 92 92 92 92 92 92 92 92 92 88 88 88 88
32 24 36 64 56 24 12 68 56 24 0 0 0 0 0 0 0 8 24 64 68 76 76 76 76 76 76 76 76 76 80 80 88 88 88 80 80 80 80 80 80 80 88 92 88 80 80 80 80 80 88 92 92 92 92 92 92 92 92 92 92 92 92 92 92 92 92 88 88
24 8 8 36 20 8 20 68 32 8 0 0 0 0 8 8 12 12 24 56 68 68 68 76 76 76 76 76 76 76 76 76 88 88 88 68 64 64 68 80 80 80 88 92 88 88 88 88 88 88 88 88 92 92 92 92 92 92 92 92 92 92 92 92 92 92 92 88 88
20 0 0 0 0 8 24 64 20 0 0 0 0 8 12 20 20 24 24 32 64 68 68 76 76 76 76 76 76 76 76 76 80 88 88 80 68 76 80 76 68 80 88 92 88 88 88 88 88 88 80 80 88 92 92 92 88 88 88 88 88 88 88 88 88 88 92 92 92
32 8 0 0 0 12 32 36 8 0 0 0 8 20 24 24 32 32 24 12 56 68 68 68 76 76 76 76 76 76 76 76 76 80 88 88 76 76 80 56 48 64 80 88 92 92 88 88 88 88 80 80 88 88 92 92 92 88 88 88 88 88 88 88 88 88 92 92 92
48 24 8 0 8 24 24 0 0 0 0 0 12 32 44 48 36 32 20 0 56 68 68 68 76 76 76 76 76 76 76 76 76 76 80 92 80 80 76 64 56 56 68 88 92 92 88 88 88 80 80 80 80 88 88 88 92 88 88 88 88 88 88 88 88 92 92 92 92
64 36 12 0 12 20 20 8 0 0 0 0 12 36 64 64 32 20 12 12 56 68 76 76 76 76 76 76 76 76 76 76 76 76 80 88 88 88 80 68 68 64 64 68 88 92 88 88 80 80 80 80 80 80 80 80 88 88 88 80 80 88 88 88 88 92 92 92 92